sat.trackr.live / text

‹ back to catalog

ORBCOMM FM20

NORAD 25416 · 1998-046D

PAYLOAD ACTIVE UNKNOWN

§ Identity

Operator
Country
ORB
Launch date
1998-08-02
Launch site
ERAS
Launch vehicle
Mass (kg)
RCS (m²)
0.68

Purposes: comms

External: N2YO · Heavens-Above · Gunter

§ Orbital elements

Epoch: 2026-09-15T04:22:15.244896Z

Period
100.13 min
Inclination
44.9932°
Eccentricity
0.0002171
Mean motion
14.38171429 rev/d
Perigee alt
763.0 km
Apogee alt
766.1 km
Semi-major
7,142.7 km
B*
2.2133e-4
RAAN
184.6580°
Arg perigee
350.3230°
Mean anomaly
9.7576°
Rev number
46,974

§ Raw data

ORBCOMM FM201 25416U 98046D   26258.18212089  .00000536  00000+0  22133-3 0  99962 25416  44.9932 184.6580 0002171 350.3230   9.7576 14.38171429469744

JSON: /api/v1/satellites/25416 · /tle

For live sub-satellite position, see the globe view (requires WebGL).

§ Visibility from observer

Set your observer location to see the next 7 days of passes ≥ 10°. The values pass through the URL so the page stays shareable.

No JS? Fill the form by hand. The geolocation button needs JavaScript.